[[{"header":{"parameterUnit":"m.s-1","parameterCategory":1,"la1":30.2991,"la2":30.254,"lo1":-89.0895,"lo2":-89.0444,"dy":0.0017,"dx":0.0017,"nx":28,"ny":28,"refTime":"2024-04-19T21:00:00:Z","depth":0,"parameterNumber":2,"parameterNumberName":"U-component_of_WINDS"},"data":[0,0,0,0,0,0,0,0,0,0,0,0,0,0,0,0,0,0,0,0,0,0,0,0,0,0,0,0,0,0,0,0,0,0,0,0,0,0,0,0,0,0,0,0,0,0,0,0,0,0,0,0,0,0,0,0,0,0,-1.7733,-1.7732,0,-1.772,-1.7719,-1.7719,-1.7693,-1.7693,-1.7692,-1.7692,-1.768,-1.768,-1.768,0,0,0,0,0,0,0,0,0,0,0,0,0,-1.7737,-1.7737,-1.7733,-1.7732,-1.7732,-1.772,-1.7719,-1.7719,-1.7693,-1.7693,-1.7692,-1.7691,-1.768,-1.768,-1.768,0,0,0,0,0,0,0,0,0,0,0,0,0,-1.773,-1.7737,-1.7733,-1.7718,-1.7716,-1.772,-1.7719,-1.7719,-1.7693,-1.7693,-1.7692,-1.7691,-1.768,-1.768,-1.768,-1.7698,0,0,-1.7681,-1.7681,0,0,0,0,0,0,0,0,-1.7731,-1.773,-1.772,-1.7719,-1.7717,-1.7707,-1.7716,-1.7712,-1.7694,-1.7702,-1.7692,-1.7691,-1.769,-1.7689,-1.7688,-1.7697,-1.7697,-1.7681,-1.7681,-1.7681,-1.7682,0,0,0,0,0,0,0,-1.7731,-1.7731,-1.7727,-1.772,-1.7718,-1.7712,-1.771,-1.7716,-1.7701,-1.7701,-1.7699,-1.7698,-1.7689,-1.7688,-1.7688,-1.7696,-1.7681,-1.7681,-1.7682,-1.7682,-1.7718,-1.7719,0,0,0,0,0,0,-1.7734,-1.7731,-1.7728,-1.7727,-1.7722,-1.7713,-1.7711,-1.7711,-1.77,-1.7698,-1.7699,-1.7697,-1.7688,-1.7688,-1.7688,-1.7707,-1.7681,-1.7682,-1.7682,-1.7717,-1.7718,-1.7719,0,0,0,0,0,0,-1.7734,-1.7734,-1.7728,-1.7729,-1.7727,-1.7714,-1.7714,-1.7711,-1.7711,-1.7698,-1.7696,-1.7701,-1.7688,-1.7687,-1.7695,-1.7706,-1.7682,-1.7682,-1.7716,-1.7718,-1.7719,-1.7745,0,0,0,0,0,0,-1.7734,-1.7734,-1.774,-1.7729,-1.7728,-1.7736,-1.7715,-1.7712,-1.7711,-1.7709,-1.77,-1.7698,-1.7687,-1.7695,-1.7695,-1.7706,-1.7682,-1.7715,-1.7717,-1.7718,-1.7743,-1.7747,-1.775,0,0,0,0,0,-1.7734,-1.7748,-1.774,-1.774,-1.7735,-1.7736,-1.7736,-1.7723,-1.7712,-1.7718,-1.771,-1.7698,-1.7705,-1.7696,-1.7696,-1.7707,-1.7715,-1.7716,-1.7718,-1.7742,-1.7746,-1.775,0,0,0,0,0,0,-1.7762,-1.7747,-1.7738,-1.7748,-1.7744,-1.7732,-1.7739,-1.7728,-1.7727,-1.7725,-1.7709,-1.7708,-1.7718,-1.7713,-1.7704,-1.7723,-1.7708,-1.771,-1.7725,-1.773,-1.7733,-1.7734,-1.7683,0,0,0,0,0,-1.7769,-1.7771,-1.7758,-1.7769,-1.7767,-1.7754,-1.7754,-1.7744,-1.7739,-1.7737,-1.773,-1.7726,-1.7727,-1.7728,-1.7729,-1.7743,-1.774,-1.775,-1.7754,-1.7757,-1.7758,-1.7765,-1.7769,-1.7725,-1.7725,-1.7725,0,0,-1.7784,-1.7776,-1.7778,-1.7774,-1.7769,-1.7772,-1.7752,-1.7756,-1.7758,-1.7738,-1.7745,-1.7739,-1.7734,-1.7745,-1.7749,-1.7741,-1.777,-1.7759,-1.7761,-1.7762,-1.7767,-1.7772,-1.7775,-1.7726,-1.7726,-1.7726,0,0,-1.7813,-1.7807,-1.7815,-1.781,-1.7803,-1.7794,-1.7796,-1.7786,-1.7782,-1.7788,-1.7773,-1.7775,-1.7778,-1.7774,-1.7773,-1.78,-1.7789,-1.7801,-1.7819,-1.7826,-1.783,-1.7833,-1.7842,-1.7845,-1.7803,-1.7803,-1.7803,0,-1.7832,-1.7835,-1.7821,-1.7825,-1.7824,-1.7805,-1.7813,-1.781,-1.7804,-1.7803,-1.7795,-1.7797,-1.7792,-1.7801,-1.7808,-1.7808,-1.781,-1.7802,-1.783,-1.7833,-1.7836,-1.7844,-1.7848,-1.7804,-1.7804,-1.7804,-1.7804,0,-1.786,-1.7862,-1.787,-1.7863,-1.7863,-1.7869,-1.7856,-1.7857,-1.7848,-1.784,-1.7847,-1.784,-1.7839,-1.784,-1.7831,-1.7849,-1.7844,-1.7833,-1.7817,-1.7842,-1.7849,-1.7853,-1.7806,-1.7806,-1.7805,-1.7805,0,0,-1.7906,-1.789,-1.7893,-1.789,-1.7881,-1.7882,-1.7888,-1.7886,-1.7887,-1.7884,-1.7888,-1.7891,-1.788,-1.7879,-1.7869,-1.7875,-1.7897,-1.7863,-1.7863,-1.7869,-1.7915,-1.7923,-1.7927,-1.7889,-1.789,-1.789,-1.7915,0,-1.7932,-1.794,-1.7927,-1.7938,-1.794,-1.7922,-1.7927,-1.7922,-1.7915,-1.7916,-1.7909,-1.791,-1.7897,-1.7896,-1.7901,-1.7893,-1.7906,-1.7891,-1.7893,-1.7893,-1.7895,-1.7931,-1.794,-1.7964,-1.7918,-1.7919,-1.7919,0,-1.7964,-1.7961,-1.7972,-1.7962,-1.7962,-1.7967,-1.7963,-1.7965,-1.7959,-1.7953,-1.7951,-1.794,-1.7945,-1.793,-1.7937,-1.7927,-1.7928,-1.7924,-1.7925,-1.7924,-1.7907,-1.7931,-1.7971,-1.7974,-1.7924,-1.7924,-1.7923,0,-1.7995,-1.7994,-1.8001,-1.7999,-1.7987,-1.799,-1.7986,-1.7979,-1.7978,-1.7976,-1.7975,-1.7974,-1.7973,-1.7972,-1.796,-1.7951,-1.7969,-1.7953,-1.7964,-1.7965,-1.7969,-1.7969,-1.8009,-1.797,-1.797,-1.797,-1.7969,0,-1.8026,-1.8034,-1.8015,-1.8019,-1.8027,-1.8012,-1.802,-1.8014,-1.8008,-1.8011,-1.7996,-1.7999,-1.7983,-1.7985,-1.7976,-1.7983,-1.7983,-1.7978,-1.7976,-1.7979,-1.798,-1.7979,-1.7977,-1.797,-1.797,-1.797,-1.797,0,-1.8063,-1.805,-1.8056,-1.8044,-1.8041,-1.8048,-1.8037,-1.8041,-1.8032,-1.8036,-1.8036,-1.8023,-1.8024,-1.8013,-1.8012,-1.8006,-1.8016,-1.8011,-1.8018,-1.8016,-1.8028,-1.8027,-1.8069,-1.8073,-1.8032,-1.8032,-1.8033,0,-1.8083,-1.8088,-1.8076,-1.8077,-1.8072,-1.8073,-1.8072,-1.8058,-1.8058,-1.8051,-1.8055,-1.8055,-1.8053,-1.8056,-1.8047,-1.8046,-1.804,-1.8055,-1.804,-1.8043,-1.804,-1.804,-1.804,-1.8058,-1.8058,-1.8059,-1.8059,0,-1.812,-1.8114,-1.8112,-1.8109,-1.8108,-1.8105,-1.8101,-1.8102,-1.8086,-1.8087,-1.8087,-1.8086,-1.8085,-1.8084,-1.8081,-1.8077,-1.8066,-1.8064,-1.8066,-1.807,-1.8074,-1.8071,-1.8026,-1.8063,-1.8063,-1.8062,-1.8062,-1.8062,-1.8149,-1.8152,-1.8144,-1.8144,-1.8139,-1.8135,-1.8138,-1.8129,-1.8129,-1.8126,-1.8118,-1.8119,-1.8113,-1.8108,-1.8105,-1.8106,-1.8099,-1.8102,-1.8103,-1.8104,-1.8106,-1.8074,-1.8105,-1.8105,-1.8105,-1.8105,-1.8105,0,-1.8185,-1.8179,-1.8178,-1.8172,-1.8172,-1.816,-1.8155,-1.8155,-1.8157,-1.8152,-1.815,-1.8151,-1.815,-1.8141,-1.8139,-1.8142,-1.8137,-1.8142,-1.8142,-1.8141,-1.8113,-1.8111,-1.8146,-1.8146,-1.8146,-1.8146,-1.8146,-1.8146,-1.8204,-1.8209,-1.8201,-1.8204,-1.8198,-1.8199,-1.8197,-1.8193,-1.8189,-1.819,-1.8189,-1.8182,-1.8176,-1.8173,-1.8172,-1.817,-1.817,-1.8177,-1.8172,-1.8147,-1.8143,-1.8139,-1.8137,-1.8177,-1.8177,-1.82,-1.82,-1.82]},{"header":{"parameterUnit":"m.s-1","parameterCategory":1,"la1":30.2991,"la2":30.254,"lo1":-89.0895,"lo2":-89.0444,"dy":0.0017,"dx":0.0017,"nx":28,"ny":28,"refTime":"2024-04-19T21:00:00:Z","depth":0,"parameterNumber":3,"parameterNumberName":"V-component_of_WINDS"},"data":[0,0,0,0,0,0,0,0,0,0,0,0,0,0,0,0,0,0,0,0,0,0,0,0,0,0,0,0,0,0,0,0,0,0,0,0,0,0,0,0,0,0,0,0,0,0,0,0,0,0,0,0,0,0,0,0,0,0,2.386,2.386,0,2.3859,2.3859,2.3859,2.3797,2.3796,2.3794,2.3793,2.379,2.3792,2.3793,0,0,0,0,0,0,0,0,0,0,0,0,0,2.3809,2.381,2.386,2.386,2.386,2.3859,2.3859,2.3859,2.3798,2.3796,2.3794,2.3792,2.379,2.3792,2.3793,0,0,0,0,0,0,0,0,0,0,0,0,0,2.3822,2.381,2.386,2.3829,2.3827,2.3859,2.3859,2.3859,2.3798,2.3796,2.3793,2.3791,2.3789,2.3791,2.3794,2.3854,0,0,2.38,2.3801,0,0,0,0,0,0,0,0,2.3821,2.3824,2.3834,2.3831,2.3828,2.3826,2.384,2.3857,2.3799,2.3809,2.3793,2.379,2.3804,2.3805,2.381,2.3854,2.3854,2.38,2.3802,2.3802,2.3803,0,0,0,0,0,0,0,2.382,2.3823,2.3859,2.3834,2.3831,2.3815,2.3815,2.3843,2.382,2.3808,2.3803,2.3804,2.3802,2.3808,2.3809,2.3854,2.38,2.3802,2.3803,2.3804,2.395,2.3952,0,0,0,0,0,0,2.3824,2.3823,2.3859,2.3859,2.3819,2.3818,2.3817,2.3829,2.3819,2.3816,2.3806,2.3801,2.3805,2.3807,2.3809,2.388,2.3802,2.3804,2.3806,2.3947,2.395,2.3953,0,0,0,0,0,0,2.3823,2.3827,2.3859,2.384,2.3843,2.3822,2.3835,2.383,2.3836,2.3818,2.3814,2.3816,2.3804,2.3806,2.3844,2.3879,2.3805,2.3807,2.3944,2.3948,2.3952,2.4023,0,0,0,0,0,0,2.3821,2.3827,2.385,2.3841,2.3844,2.3895,2.3837,2.3832,2.384,2.3834,2.3826,2.3823,2.3802,2.3841,2.3846,2.3881,2.3809,2.3941,2.3946,2.395,2.4018,2.4029,2.4039,0,0,0,0,0,2.382,2.387,2.3852,2.3857,2.3872,2.3897,2.3899,2.3874,2.3843,2.3866,2.3855,2.3823,2.3875,2.3845,2.385,2.3887,2.3938,2.3944,2.395,2.4013,2.4027,2.4039,0,0,0,0,0,0,2.3883,2.3868,2.3848,2.3896,2.3899,2.3886,2.3914,2.3889,2.3899,2.3893,2.3861,2.386,2.3903,2.3898,2.3866,2.3946,2.3901,2.3908,2.3947,2.396,2.3971,2.3971,2.3811,0,0,0,0,0,2.3903,2.3925,2.391,2.3954,2.3956,2.3936,2.3945,2.3926,2.3927,2.3927,2.3918,2.392,2.3936,2.3948,2.3962,2.4017,2.4015,2.4044,2.4055,2.4064,2.407,2.41,2.4113,2.3972,2.3972,2.3972,0,0,2.3944,2.3938,2.3953,2.3967,2.3966,2.3989,2.3937,2.3963,2.3979,2.3931,2.3966,2.396,2.396,2.4007,2.4027,2.4004,2.4109,2.4071,2.4078,2.408,2.4107,2.4121,2.4132,2.3976,2.3975,2.3975,0,0,2.403,2.4028,2.4065,2.4066,2.4066,2.4052,2.4061,2.4053,2.4048,2.4083,2.4047,2.4067,2.4096,2.4097,2.4102,2.4191,2.4162,2.4196,2.4252,2.4281,2.4292,2.4302,2.4334,2.4346,2.4203,2.4203,2.4203,0,2.408,2.4114,2.4087,2.4116,2.4124,2.4082,2.4119,2.4121,2.4126,2.4132,2.4106,2.4143,2.4139,2.4187,2.4208,2.4213,2.4223,2.4197,2.4293,2.4302,2.4311,2.4341,2.4354,2.4207,2.4206,2.4206,2.4206,0,2.4177,2.4201,2.4231,2.4237,2.4248,2.4281,2.426,2.4273,2.4254,2.4243,2.428,2.4274,2.4287,2.4297,2.4277,2.4342,2.4328,2.4298,2.4253,2.4329,2.4357,2.4369,2.4213,2.4211,2.421,2.4209,0,0,2.4302,2.4295,2.4306,2.4309,2.4307,2.4325,2.4356,2.437,2.4383,2.4388,2.4414,2.444,2.4413,2.4418,2.4398,2.4424,2.4496,2.4391,2.4391,2.4412,2.4568,2.4591,2.4605,2.4477,2.4479,2.4481,2.4568,0,2.4386,2.444,2.4418,2.4474,2.4497,2.4458,2.4485,2.4487,2.4478,2.4495,2.4484,2.4504,2.4466,2.4469,2.4493,2.4482,2.4527,2.4476,2.4502,2.4503,2.4504,2.462,2.4644,2.4726,2.4579,2.4581,2.4582,0,2.4491,2.4502,2.4561,2.4556,2.4565,2.459,2.4601,2.4618,2.462,2.4611,2.4618,2.4593,2.4624,2.4579,2.4621,2.4587,2.4596,2.4593,2.4595,2.4597,2.4548,2.4625,2.4752,2.4765,2.4599,2.4598,2.4597,0,2.4578,2.4607,2.4646,2.465,2.4645,2.4664,2.4663,2.4662,2.4672,2.4681,2.4688,2.4701,2.4708,2.4719,2.4698,2.4667,2.4744,2.4696,2.4738,2.4738,2.4756,2.4755,2.4887,2.4761,2.4761,2.4761,2.476,0,2.4675,2.4713,2.4686,2.471,2.4751,2.4725,2.4767,2.4761,2.4761,2.4783,2.475,2.4772,2.4743,2.4762,2.4746,2.4784,2.4787,2.4781,2.4777,2.4785,2.4786,2.4791,2.4785,2.4764,2.4763,2.4762,2.4762,0,2.4779,2.4762,2.4803,2.4795,2.4794,2.4825,2.4819,2.4841,2.483,2.4859,2.4864,2.4846,2.4867,2.4848,2.4867,2.4856,2.4908,2.4894,2.4908,2.4904,2.4947,2.4944,2.5087,2.5105,2.4967,2.4968,2.4969,0,2.4842,2.487,2.4867,2.488,2.4881,2.4902,2.4913,2.4888,2.4901,2.4905,2.4927,2.4945,2.4959,2.4994,2.4983,2.4998,2.4985,2.5034,2.4987,2.4994,2.4987,2.4986,2.4989,2.5044,2.5045,2.5047,2.5048,0,2.4956,2.4947,2.4964,2.4978,2.4992,2.5002,2.5009,2.5022,2.4997,2.5012,2.5034,2.5044,2.5065,2.5084,2.5095,2.5093,2.5067,2.5063,2.5073,2.5082,2.5089,2.5087,2.4935,2.506,2.5058,2.5057,2.5057,2.5056,2.5042,2.5066,2.5068,2.5088,2.5091,2.5099,2.512,2.5112,2.513,2.5146,2.513,2.5156,2.5158,2.5171,2.5172,2.5193,2.5172,2.5187,2.5191,2.5195,2.5202,2.5086,2.5195,2.5194,2.5194,2.5194,2.5193,0,2.5155,2.5155,2.5174,2.5186,2.5202,2.5176,2.5183,2.5198,2.5222,2.5226,2.5241,2.5266,2.5284,2.5275,2.5291,2.5309,2.5297,2.5314,2.5313,2.5313,2.5219,2.5209,2.5324,2.5324,2.5324,2.5323,2.5323,2.5323,2.5216,2.5256,2.5248,2.5289,2.5288,2.5314,2.5321,2.5328,2.5331,2.5361,2.5377,2.5371,2.537,2.5386,2.5401,2.5398,2.5406,2.5428,2.542,2.5332,2.532,2.5307,2.5298,2.5429,2.5429,2.5513,2.5513,2.5514]}]]